Weather in Chungju

South Korea     36°58′17″N   127°55′32″E
temp.,
°C
wind,
m/s
gust,
m/s
humid.,
%
clouds,
%
prec.,
mm/h
press.,
hPa
HPBL,
m
25 october, mon
mon2500:00+7e1177100 0.0 102610
03:00+6e117976 0.0 102510
06:00+6e118199 0.0 102510
09:00+10nne0065100 0.0 1025201
12:00+14wnw23430 0.0 1023966
15:00+15wnw23400 0.0 10211191
18:00+10sse01600 0.0 102210
21:00+7sse11685 0.0 102310
26 october, tue
tue2600:00+6se01755 0.0 102210
03:00+5e00795 0.0 102210
06:00+4e1182100 0.0 102310
09:00+9ne006491 0.0 1023199
12:00+15w2250100 0.0 1022717
15:00+15wnw2350100 0.0 1019871
18:00+11ssw016999 0.0 102010
21:00+10sw1173100 0.0 102010
27 october, wed
wed2700:00+10ssw1180100 0.0 102010
03:00+10ssw1183100 0.0 101911
06:00+8s119237 0.0 102010
09:00+12sw137759 0.0 1020318
12:00+16w45520 0.0 10181305
15:00+17wnw46330 0.0 10171446
18:00+10sw22580 0.0 101941
21:00+7sw11680 0.0 102013
28 october, thu
thu2800:00+6sw11710 0.0 102111
03:00+5ssw11740 0.0 102210
06:00+5sse11760 0.0 102310
09:00+9ene11610 0.0 1024215
12:00+15wnw11420 0.0 1023718
15:00+16wsw01370 0.0 1022890
18:00+11sw01570 0.0 102310
21:00+9e11670 0.0 102510
29 october, fri
fri2900:00+7e21770 0.0 102614
03:00+6e21850 0.0 102715
06:00+6ene21894 0.0 102814
09:00+10ene127010 0.0 1029213
12:00+16ene125024 0.0 10271032
15:00+17nne0144100 0.0 10251400
18:00+12sw01660 0.0 102511
21:00+10ese22781 0.0 102620